Home > Weather > Siegburg > Past weeks

Flag for Germany Past Weather in Siegburg, North Rhine-Westphalia, Germany — Yesterday and Last 2 Weeks

Now
82 °F

Overcast.


Feels Like: 84 °F
Forecast: 67 / 93 °F
Wind: 2 mph from North

Location: Aachen-Orsbach

Current Time: Aug 26, 2016 at 8:42:11 PM

Latest Report: Aug 26, 2016 at 7:00 PM


Visibility: 7 mi

Pressure: 30.02 "Hg

Humidity: 60%

Dew Point: 67 °F

Location of SiegburgLocation

Past Weather in Siegburg — Graph

°F

Siegburg Temperature Yesterday

Maximum temperature yesterday: 90 °F (at 3:00 PM)
Minimum temperature yesterday: 63 °F (at 6:00 AM)
Average temperature yesterday: 78 °F

High & Low Weather Summary for the Past Weeks

 TemperatureHumidityPressure
High90 °F (Aug 25, 3:00 PM)98% (Aug 15, 7:00 AM)30.33 "Hg (Aug 15, 7:00 AM)
Low51 °F (Aug 16, 6:00 AM)36% (Aug 24, 4:00 PM)29.79 "Hg (Aug 18, 9:00 AM)
Average67 °F70%30.07 "Hg
* Reported Aug 11 7:00 PM — Aug 26 7:00 PM, Siegburg, Weather by CustomWeather, © 2016

Note: Actual official high and low records may vary slightly from our data, if they occured in-between our weather recording intervals... More about our weather records

Advertising

Siegburg Weather History for the Previous 24 Hours

Scroll right to see more
 ConditionsComfort  
Time TempWeatherWind HumidityBarometerVisibility
7:00 PM
Fri, Aug 26
82 °FOvercast.2 mph60%30.02 "Hg7 mi
6:00 PM83 °FOvercast.5 mph57%30.01 "Hg8 mi
4:00 PM86 °FScattered clouds.5 mph51%30.01 "Hg31 mi
3:00 PM85 °FScattered clouds.5 mph55%30.00 "Hg31 mi
1:00 PM85 °FPassing clouds.3 mph50%30.00 "Hg31 mi
12:00 PM83 °FPassing clouds.3 mph52%29.99 "Hg31 mi
10:00 AM80 °FPassing clouds.5 mph55%29.98 "Hg31 mi
9:00 AM77 °FScattered clouds.3 mph65%29.98 "Hg31 mi
7:00 AM75 °FSunny.6 mph60%29.96 "Hg31 mi
6:00 AM76 °FClear.7 mph58%29.95 "Hg31 mi
4:00 AM77 °FClear.7 mph56%29.94 "Hg34 mi
3:00 AM76 °FClear.6 mph56%29.94 "Hg34 mi
1:00 AM74 °FClear.5 mph56%29.95 "Hg34 mi
12:00 AM75 °FClear.5 mph61%29.95 "Hg34 mi
10:00 PM
Thu, Aug 25
78 °FClear.5 mph62%29.95 "Hg34 mi
9:00 PM81 °FClear.2 mph59%29.94 "Hg34 mi
Weather by CustomWeather, © 2016

See weather overviewHow to use our weather pages